Location: Unspecified
(49.8670°N, 0.0000°E)
Time: 21:25:35
(UTC+00:00)

S-56A Canister/Altair - Pass Details

Date: 19 June 2019
Orbit: 632 x 2500 km, 38.9° (Epoch: 15 July)

Event Time Altitude Azimuth Distance (km) Brightness Sun altitude
Rises 17:14:17 0° 232° (SW) 4,543 12.1 25.1°
Reaches altitude 10° 17:18:19 10° 220° (SW) 3,220 11.2 24.5°
Maximum altitude 17:24:11 25° 170° (S) 1,879 9.5 23.5°
Drops below altitude 10° 17:28:40 10° 116° (ESE) 2,396 9.6 22.8°
Sets 17:31:12 0° 102° (ESE) 3,165 10.1 22.4°
